Weather History for Pittsfield, IL

Change the Weather History Date:

Monday, March 18, 2013

  Actual Average (KUIN) Record (KUIN)
Temperature  
Mean Temperature 41 °F 43 °F  
Max Temperature 50 °F 52 °F 81 °F (2012)
Min Temperature 32 °F 33 °F 6 °F (1960)
Degree Days  
Heating Degree Days 24 22  
Month to date heating degree days 463  
Since 1 July heating degree days 4805  
Cooling Degree Days 0 0  
Month to date cooling degree days 0  
Year to date cooling degree days 0  
Moisture  
Dew Point 31 °F    
Average Humidity 78    
Maximum Humidity 97    
Minimum Humidity 40    
Precipitation  
Precipitation 0.03 in 0.08 in 1.24 in (1992)
Month to date precipitation 1.37  
Year to date precipitation 4.77  
Sea Level Pressure  
Sea Level Pressure 29.80 in    
Wind  
Wind Speed 10 mph (WNW)    
Max Wind Speed 21 mph    
Max Gust Speed 32 mph    
Visibility 7 miles    
Events Rain    
T = Trace of Precipitation, MM = Missing Value Source: NWS Daily Summary

Daily Weather History Graph

Daily Weather History Graph

Search for Another Location

Airport:

Trip Planner

Search our weather history database for the weather conditions in past years. The results will help you decide how hot, cold, wet, or windy it might be!

Date:

Astronomy

Mar. 18, 2013 Rise Set
Actual Time 7:09 AM CDT 7:13 PM CDT
Civil Twilight 6:42 AM CDT 7:40 PM CDT
Nautical Twilight 6:11 AM CDT 8:11 PM CDT
Astronomical Twilight 5:39 AM CDT 8:43 PM CDT
Moon 11:10 AM CDT (3/18) 1:11 AM CDT (3/18)
Length of Visible Light 12h 57m
Length of Day
12h 04m
Waxing Crescent, 41% of the Moon is Illuminated
Mar 18
Waxing Crescent
Mar 19
First Quarter
Mar 27
Full
Apr 2
Last Quarter
Apr 10
New

Hourly Weather History & Observations

Time (CDT) Temp. Windchill Dew Point Humidity Pressure Visibility Wind Dir Wind Speed Gust Speed Precip Events Conditions
12:15 AM 34.7 °F 26.4 °F 32.9 °F 93% 29.83 in 5.0 mi ENE 11.5 mph 17.3 mph N/A   Overcast
12:35 AM 34.7 °F 25.9 °F 32.9 °F 93% 29.81 in 5.0 mi ENE 12.7 mph 17.3 mph N/A Rain Rain
12:55 AM 34.7 °F 26.9 °F 32.9 °F 93% 29.80 in 4.0 mi ENE 10.4 mph - N/A   Drizzle
1:15 AM 34.7 °F 26.9 °F 32.9 °F 93% 29.79 in 5.0 mi ENE 10.4 mph 18.4 mph N/A   Overcast
1:35 AM 34.7 °F 25.9 °F 33.1 °F 94% 29.78 in 3.0 mi ENE 12.7 mph 16.1 mph N/A   Overcast
1:55 AM 34.7 °F 26.9 °F 33.1 °F 94% 29.77 in 4.0 mi ENE 10.4 mph - N/A   Overcast
2:15 AM 34.9 °F 28.3 °F 33.3 °F 94% 29.77 in 4.0 mi East 8.1 mph - N/A   Overcast
2:35 AM 35.1 °F 28.6 °F 33.4 °F 94% 29.77 in 5.0 mi ENE 8.1 mph - N/A   Overcast
2:55 AM 34.9 °F 28.3 °F 33.4 °F 94% 29.76 in 3.0 mi ENE 8.1 mph - N/A   Drizzle
3:15 AM 34.9 °F 28.3 °F 33.6 °F 95% 29.75 in 2.5 mi ENE 8.1 mph - N/A   Drizzle
3:35 AM 34.9 °F 27.7 °F 33.8 °F 96% 29.74 in 2.0 mi ENE 9.2 mph - 0.01 in   Drizzle
3:55 AM 34.9 °F 29.0 °F 33.8 °F 96% 29.73 in 2.0 mi ENE 6.9 mph - 0.01 in   Drizzle
4:15 AM 35.1 °F 29.3 °F 34.0 °F 96% 29.73 in 2.0 mi NE 6.9 mph - 0.01 in   Drizzle
4:35 AM 34.9 °F 32.0 °F 33.8 °F 96% 29.73 in 2.5 mi NE 3.5 mph - 0.01 in   Light Drizzle
4:55 AM 35.1 °F 32.2 °F 34.0 °F 96% 29.73 in 2.5 mi NE 3.5 mph - 0.01 in   Light Drizzle
5:15 AM 35.1 °F - 34.0 °F 96% 29.73 in 2.0 mi Calm Calm - N/A   Drizzle
5:35 AM 35.1 °F - 34.0 °F 96% 29.72 in 2.0 mi Calm Calm - 0.01 in   Light Drizzle
5:55 AM 34.9 °F - 34.0 °F 97% 29.71 in 2.0 mi Calm Calm - 0.01 in   Overcast
6:15 AM 34.9 °F 32.0 °F 34.0 °F 97% 29.70 in 2.5 mi NE 3.5 mph - N/A   Overcast
6:35 AM 34.9 °F 32.0 °F 34.0 °F 97% 29.70 in 2.0 mi ENE 3.5 mph - N/A   Overcast
6:55 AM 34.9 °F - 34.0 °F 97% 29.72 in 2.5 mi Calm Calm - N/A   Overcast
7:15 AM 34.9 °F - 34.0 °F 97% 29.72 in 3.0 mi Calm Calm - N/A   Overcast
7:35 AM 35.1 °F - 34.2 °F 97% 29.72 in 2.5 mi Calm Calm - N/A   Overcast
7:55 AM 35.2 °F 32.4 °F 34.2 °F 96% 29.73 in 1.5 mi West 3.5 mph - N/A   Light Drizzle
8:15 AM 35.2 °F 32.4 °F 34.3 °F 97% 29.73 in 1.5 mi WNW 3.5 mph - N/A   Overcast
8:35 AM 35.6 °F 31.7 °F 34.7 °F 97% 29.72 in 1.8 mi WNW 4.6 mph - N/A   Overcast
8:55 AM 35.6 °F 31.7 °F 34.7 °F 97% 29.72 in 2.0 mi WNW 4.6 mph - N/A   Overcast
9:15 AM 36.0 °F 32.1 °F 34.9 °F 96% 29.72 in 2.5 mi WNW 4.6 mph - N/A   Overcast
9:35 AM 36.0 °F 29.6 °F 34.7 °F 95% 29.72 in 4.0 mi West 8.1 mph - N/A   Overcast
9:55 AM 36.5 °F 30.3 °F 35.1 °F 95% 29.73 in 5.0 mi West 8.1 mph - N/A   Overcast
10:15 AM 36.7 °F 30.5 °F 34.9 °F 93% 29.73 in 7.0 mi West 8.1 mph - N/A   Overcast
10:35 AM 37.0 °F 29.8 °F 35.1 °F 93% 29.74 in 7.0 mi West 10.4 mph - N/A   Overcast
10:55 AM 37.4 °F 29.8 °F 35.2 °F 92% 29.75 in 7.0 mi West 11.5 mph - N/A   Overcast
11:15 AM 37.6 °F 30.0 °F 35.2 °F 91% 29.76 in 7.0 mi West 11.5 mph 20.7 mph N/A   Overcast
11:35 AM 37.8 °F 30.2 °F 35.1 °F 90% 29.76 in 7.0 mi West 11.5 mph 20.7 mph N/A   Overcast
11:55 AM 38.3 °F 31.9 °F 35.2 °F 89% 29.76 in 10.0 mi West 9.2 mph 18.4 mph N/A   Overcast
12:15 PM 38.5 °F 31.6 °F 35.4 °F 89% 29.76 in 10.0 mi West 10.4 mph - N/A   Overcast
12:35 PM 39.7 °F 31.9 °F 35.8 °F 86% 29.78 in 10.0 mi West 13.8 mph - N/A   Overcast
12:55 PM 40.1 °F 33.6 °F 35.6 °F 84% 29.78 in 10.0 mi West 10.4 mph - N/A   Overcast
1:15 PM 40.1 °F 33.2 °F 35.8 °F 85% 29.79 in 10.0 mi West 11.5 mph 19.6 mph N/A   Overcast
1:35 PM 40.8 °F 35.0 °F 35.8 °F 82% 29.78 in 10.0 mi West 9.2 mph 23.0 mph N/A   Overcast
1:55 PM 41.5 °F 35.4 °F 36.0 °F 81% 29.78 in 10.0 mi West 10.4 mph 19.6 mph N/A   Overcast
2:15 PM 41.9 °F 34.6 °F 36.0 °F 79% 29.78 in 10.0 mi West 13.8 mph 20.7 mph N/A   Overcast
2:35 PM 43.5 °F 36.4 °F 36.3 °F 76% 29.78 in 10.0 mi West 15.0 mph 23.0 mph N/A   Overcast
2:55 PM 45.1 °F 37.9 °F 35.8 °F 70% 29.77 in 10.0 mi West 17.3 mph 24.2 mph N/A   Overcast
3:15 PM 46.8 °F - 35.8 °F 66% 29.76 in 10.0 mi West 10.4 mph 23.0 mph N/A   Mostly Cloudy
3:35 PM 48.0 °F - 32.7 °F 55% 29.77 in 10.0 mi West 12.7 mph 32.2 mph N/A   Scattered Clouds
3:55 PM 50.2 °F - 32.9 °F 52% 29.77 in 10.0 mi West 16.1 mph 26.5 mph N/A   Mostly Cloudy
4:15 PM 48.7 °F - 28.4 °F 45% 29.77 in 10.0 mi WNW 20.7 mph 28.8 mph N/A   Scattered Clouds
4:35 PM 49.5 °F - 28.4 °F 44% 29.78 in 10.0 mi West 11.5 mph 23.0 mph N/A   Scattered Clouds
4:55 PM 49.5 °F - 27.3 °F 42% 29.78 in 10.0 mi WNW 19.6 mph 24.2 mph N/A   Clear
5:15 PM 48.9 °F - 27.3 °F 43% 29.79 in 10.0 mi West 15.0 mph 25.3 mph N/A   Clear
5:35 PM 48.4 °F - 27.0 °F 43% 29.80 in 10.0 mi WNW 15.0 mph 26.5 mph N/A   Clear
5:55 PM 48.2 °F - 24.8 °F 40% 29.81 in 10.0 mi West 18.4 mph 31.1 mph N/A   Clear
6:15 PM 47.3 °F - 25.9 °F 43% 29.82 in 10.0 mi WNW 17.3 mph 29.9 mph N/A   Clear
6:35 PM 46.2 °F 40.5 °F 26.4 °F 46% 29.83 in 10.0 mi WNW 12.7 mph 19.6 mph N/A   Clear
6:55 PM 44.8 °F 38.7 °F 26.6 °F 49% 29.84 in 10.0 mi WNW 12.7 mph 20.7 mph N/A   Clear
7:15 PM 42.4 °F 35.7 °F 26.4 °F 53% 29.86 in 10.0 mi NW 12.7 mph 20.7 mph N/A   Clear
7:35 PM 39.9 °F 32.9 °F 26.1 °F 58% 29.87 in 10.0 mi WNW 11.5 mph - N/A   Clear
7:55 PM 39.2 °F 34.2 °F 25.7 °F 58% 29.88 in 10.0 mi WNW 6.9 mph - N/A   Clear
8:15 PM 38.3 °F 32.5 °F 25.5 °F 60% 29.90 in 10.0 mi NW 8.1 mph - N/A   Clear
8:35 PM 37.6 °F 29.1 °F 25.7 °F 62% 29.91 in 10.0 mi NW 13.8 mph 18.4 mph N/A   Clear
8:55 PM 37.0 °F 28.9 °F 25.0 °F 62% 29.93 in 10.0 mi WNW 12.7 mph - N/A   Clear
9:15 PM 36.0 °F 27.1 °F 25.0 °F 64% 29.94 in 10.0 mi NW 13.8 mph 19.6 mph N/A   Clear
9:35 PM 35.1 °F 27.4 °F 23.5 °F 63% 29.95 in 10.0 mi WNW 10.4 mph - N/A   Clear
9:55 PM 34.7 °F 26.9 °F 23.4 °F 63% 29.96 in 10.0 mi WNW 10.4 mph - N/A   Clear
10:15 PM 34.7 °F 25.1 °F 21.9 °F 60% 29.97 in 10.0 mi WNW 15.0 mph 20.7 mph N/A   Clear
10:35 PM 33.8 °F 23.9 °F 21.2 °F 60% 29.99 in 10.0 mi WNW 15.0 mph 27.6 mph N/A   Clear
10:55 PM 33.1 °F 23.0 °F 20.8 °F 61% 30.00 in 10.0 mi WNW 15.0 mph 20.7 mph N/A   Clear
11:15 PM 33.1 °F 23.0 °F 18.7 °F 56% 30.01 in 10.0 mi WNW 15.0 mph 25.3 mph N/A   Clear
11:35 PM 32.5 °F 23.2 °F 18.5 °F 56% 30.02 in 10.0 mi WNW 12.7 mph 20.7 mph N/A   Clear
11:55 PM 32.5 °F 23.2 °F 18.3 °F 56% 30.02 in 10.0 mi WNW 12.7 mph 24.2 mph N/A   Clear